STARLINK-32504, 62024

Orbit data source: Space-Track

STARLINK-32504, 62024 is a payload satellite owned by SpaceX/Seattle (US) in LEO that was launched on Mon, 18 Nov 2024 UTC via an FALCON 9 launch vehicle from the Air Force Western Test Range (AFWTR). Payload-class satellites include a variety of spacecraft equipped with specific instruments for various scientific and technological missions. These include communications satellites like Starlink; space stations such as the ISS; scientific satellites like the Hubble; Earth observation satellites from companies like Planet Labs, Umbra, and HawkEye 360; GPS; miniature CubeSats for education and research; and military/defense satellites.

Loading next visibility...
Identifier
62024, 2024-213S
Orbit
LEO
Country
Flag of USUS
Related business
Manufacturer
SpaceX/Seattle
Mission
Operational Commercial Communications
Bus & Motor
STARLINK V2M, Unknown motor
Mass
730 kg wet, ~700 kg dry
Launch date (UTC)
2024-11-18 (11 months ago)
Launch vehicle
FALCON 9
Launch site
Air Force Western Test Range (AFWTR)
Object type
Payload
Rocket body
Debris
Shape & HBR
Box + 2 Pan, 17.7 m
Radar Cross Section
33.884 m², Large (>1 m²)

Expand to show TLE details & history
Last TLE update: 18 hours ago

TLE from 18 hours ago
0 STARLINK-32504
1 62024U 24213S   25288.99983031  .00030714  00000-0  10441-2 0  9990
2 62024  53.1595 120.0906 0001194  87.7250 272.3888 15.30224231 51003
Epoch: 2025-10-15T23:59Z
TLE epoch observation values (Epoch: 2025-10-15T23:59:45.338Z)
Latitude
0.00001°
Longitude
95.38585°
Altitude
476.008 km
Speed
7.629 km/s
True Right ascension
08h 00m 21s
True Declination
0° 00' 00"
Sunlit
Object was in daylight at epoch
Visualization orbit readout
Latitude
Unknown
Longitude
Unknown
Altitude
Unknown
Speed
Unknown
Apparent Right ascension
Unknown
Apparent Declination
Unknown
Sunlit
N/A
Visualization observer readout
Local Sidereal Time
12:11:25
Azimuth
Unknown
Elevation
Unknown
Doppler factor
Unknown
Orbital elements
Apogee altitude
476.218 km
Perigee altitude
474.581 km
Semi-major axis
6,853.536 km
Eccentricity
0.00012
Inclination
53.1595°
RAAN
120.0906°
Arg. of periapsis
87.725°
True anomaly
272.37513°
Mean anomaly
272.3888°
Eccentric anomaly
272.38196°
Mean motion
3.82535 °/min
Orbital period
94.11 mins
BSTAR
0.0010441
Loading maneuver chart data...
Computing Atmospheric mass density...
Loading historical data...
Loading historical data...
Loading historical data...
Loading historical data...
Loading historical data...
Loading historical data...
Loading historical data...

Documentation

Showing up to 5 results
|